RH
28 28 28 25 22 20 16 11 10 8 8 7 7 7 7 7 6 5 5 5 8 11 14 15 16 16 16 14 11 8 6 5 4 3 3 4 4 5 6 5 5 4 4 5 4 5 6 11 17 18 16 15 14 14 13 15 23 27 33 37 25 21 20 18 27 33 39 44 42 39 34 41 49 45 48 49 51 54 57 63 64 60 63 63 62 65 71 87
28 29 29 26 23 22 19 14 12 10 8 7 7 7 9 9 9 8 7 7 8 10 12 14 15 16 16 15 12 10 7 5 3 3 3 4 4 5 6 6 4 4 4 4 4 5 8 14 17 16 15 14 14 14 13 13 19 26 34 31 21 20 18 20 31 33 38 43 40 41 37 38 45 46 45 52 56 54 66 77 71 74 83 81 78 75 74 83
29 29 30 28 24 23 21 17 15 12 9 7 6 7 10 11 11 10 9 9 9 11 12 14 15 16 16 15 13 11 8 5 3 3 3 4 4 4 6 6 4 4 4 4 5 5 10 15 16 15 15 15 15 15 11 10 14 19 24 23 16 17 23 28 33 33 36 38 38 40 37 38 43 43 44 53 58 59 73 81 79 91 98 95 94 85 81 89
29 30 30 29 26 23 23 20 18 15 11 8 6 9 14 14 12 10 10 10 11 12 13 15 15 16 16 15 14 11 7 5 4 2 3 3 4 4 5 5 4 4 4 4 5 7 12 14 14 15 15 17 15 12 10 9 11 12 15 17 12 19 32 34 32 34 34 34 36 38 38 42 42 42 46 50 55 60 66 65 67 81 92 97 99 93 92 96
27 29 30 30 27 24 24 22 20 19 15 10 9 15 18 15 11 9 9 9 12 13 14 14 14 15 15 16 14 9 7 6 4 4 4 3 3 4 4 5 4 4 4 4 5 7 11 12 13 14 15 19 15 10 10 8 9 9 9 11 15 26 35 35 34 33 32 32 35 38 41 45 45 44 46 46 53 57 54 53 54 60 72 82 89 97 99 95
26 28 29 31 28 24 24 23 22 21 19 16 16 21 21 16 10 8 8 9 11 11 11 11 10 11 12 13 11 8 8 10 8 9 9 3 3 4 4 5 4 4 4 4 5 6 10 11 13 16 17 20 16 10 9 8 7 9 9 10 20 30 33 35 37 32 29 33 39 43 44 47 48 49 48 47 52 52 46 50 57 61 66 73 82 92 94 90
24 27 29 30 28 25 24 23 22 22 21 20 22 24 22 16 10 8 8 9 10 10 11 11 11 10 10 10 8 7 8 11 12 14 13 5 3 4 4 5 4 5 4 5 5 6 12 12 12 16 18 19 16 10 9 7 7 9 11 15 24 31 34 37 38 34 32 39 43 44 46 48 51 53 52 53 53 51 49 54 63 70 73 77 85 87 85 84
24 26 28 30 29 25 23 23 22 22 21 22 23 24 23 17 10 9 9 9 10 11 11 10 10 10 10 8 8 9 8 10 13 14 13 7 4 3 4 4 4 5 4 5 5 7 14 14 14 15 17 19 15 11 9 8 9 10 11 19 29 33 36 38 39 39 39 43 42 44 52 54 55 53 56 63 62 56 54 63 71 76 79 80 81 82 81 80
24 25 27 29 29 25 23 23 22 22 21 22 22 23 24 17 10 9 9 10 11 9 8 6 6 6 7 7 8 9 7 8 11 12 11 8 4 3 4 4 4 5 5 5 5 9 13 14 16 14 16 18 13 10 9 9 11 9 9 20 31 36 38 41 43 44 46 46 41 49 60 58 53 52 60 70 69 63 62 71 76 76 81 81 78 75 73 72
25 24 26 28 29 26 24 23 22 21 20 21 22 23 24 17 10 9 9 11 8 5 5 4 4 3 3 5 8 10 6 6 10 11 10 8 5 3 4 4 5 5 5 5 6 11 13 14 16 12 13 13 11 10 9 10 11 10 17 27 35 39 40 42 46 45 47 49 45 53 65 58 49 55 68 73 70 68 70 77 78 78 80 80 78 75 71 68
27 24 25 27 28 26 24 22 21 20 20 22 22 22 23 15 9 9 10 10 6 5 5 3 3 3 3 5 10 13 9 7 11 13 10 9 7 6 5 5 6 5 5 6 8 13 14 15 15 13 13 11 10 9 8 10 9 16 28 30 33 40 43 44 47 47 46 50 45 45 57 57 54 64 71 71 72 70 72 78 79 80 84 82 80 78 76 72
28 24 24 25 27 26 24 22 21 19 21 22 21 23 20 11 9 9 9 10 6 5 5 4 4 5 6 7 12 16 13 12 14 13 11 9 8 8 8 8 7 6 5 7 12 15 15 14 13 12 12 10 10 9 9 9 10 21 29 28 32 41 46 44 45 46 43 47 42 35 50 67 70 71 68 68 72 71 73 77 77 80 83 84 82 80 79 76
30 25 23 24 25 26 24 22 21 19 22 22 20 23 18 7 8 10 8 11 9 5 6 9 11 13 14 14 15 17 16 16 15 13 11 8 8 8 8 8 6 5 8 11 15 16 14 12 10 11 10 9 10 8 9 8 9 17 21 28 38 45 48 40 38 44 43 46 40 34 56 81 79 67 65 68 70 70 73 74 74 77 80 82 82 80 79 75
29 26 23 22 24 25 24 23 21 20 24 22 18 23 23 12 8 9 9 11 11 9 8 12 17 20 23 21 18 18 17 16 15 13 10 8 8 8 7 7 6 9 12 14 15 13 12 10 9 9 9 10 8 8 14 13 13 14 15 25 37 49 52 35 33 44 48 48 41 42 67 85 77 66 66 67 66 68 70 71 71 73 76 80 82 79 76 72
29 27 22 21 22 24 24 23 21 21 24 25 20 19 26 24 13 8 10 11 11 13 14 17 21 23 25 20 15 16 16 15 15 13 9 7 7 7 7 8 10 13 14 13 13 12 11 9 9 10 9 10 9 14 21 19 19 19 18 22 26 43 47 29 30 41 46 49 43 49 74 85 75 67 67 65 65 66 66 68 69 70 72 75 78 79 75 69
29 27 23 20 21 22 24 23 21 21 23 26 23 16 23 30 20 11 11 11 11 13 18 21 22 22 24 19 13 14 14 14 15 13 9 7 7 8 9 12 14 14 13 12 11 10 10 9 10 11 9 11 13 22 27 26 31 27 24 24 22 36 42 32 35 38 40 48 50 55 74 85 76 68 69 66 63 64 67 70 67 68 70 71 73 75 74 71
28 27 24 20 19 21 23 23 21 21 23 26 23 17 20 24 22 19 14 12 13 12 14 17 19 22 22 16 13 13 12 13 14 14 10 7 9 11 12 14 14 13 12 11 10 9 10 10 10 10 13 16 19 26 24 24 29 25 24 24 21 33 38 38 43 37 36 50 61 65 73 81 75 70 74 72 65 62 69 73 70 69 68 68 70 71 72 71
24 25 24 20 19 20 21 23 22 21 23 25 20 17 20 20 21 23 18 17 17 13 16 21 22 24 18 13 14 13 11 13 13 14 11 9 12 13 14 15 13 12 11 10 10 10 10 10 12 16 20 20 20 27 24 20 20 19 23 21 18 27 32 40 46 38 42 58 68 71 74 79 76 75 78 78 72 67 72 76 72 70 68 67 68 69 69 69
18 20 22 21 19 18 21 22 22 21 23 25 19 17 20 18 18 22 21 22 21 17 20 22 21 20 15 12 15 13 11 12 13 13 12 11 13 15 15 13 12 12 10 12 11 10 10 11 14 17 19 17 16 22 21 19 18 18 23 22 21 26 30 37 41 38 48 62 67 71 78 81 80 80 79 81 80 76 79 82 78 74 72 70 69 68 68 67
15 16 18 20 19 18 20 21 22 23 24 24 19 18 22 22 24 27 24 19 18 17 16 16 16 16 15 14 14 13 12 12 13 13 13 13 14 15 14 13 13 13 13 16 13 9 12 15 17 17 17 18 17 17 16 18 18 16 19 20 21 28 30 34 39 40 45 59 69 73 80 81 82 85 80 81 85 85 86 85 85 82 76 73 70 68 67 65
13 13 14 17 18 18 18 20 22 24 25 25 21 20 25 29 32 32 26 18 14 15 15 14 15 14 13 13 13 13 13 12 12 13 13 14 15 14 14 14 15 15 15 15 12 13 16 18 17 17 17 17 17 17 16 17 17 17 17 16 20 28 32 34 39 39 42 60 74 76 82 82 79 83 83 84 86 87 89 87 85 84 81 76 69 67 68 67
11 12 12 13 16 18 18 19 22 25 26 25 23 24 26 30 32 32 31 27 18 13 13 13 12 11 10 10 12 13 13 13 12 12 13 13 14 13 13 15 16 18 16 13 15 19 21 19 15 15 16 16 17 17 16 17 19 20 19 19 25 31 37 38 38 43 49 64 76 77 82 82 75 78 81 83 85 84 86 86 82 78 80 79 71 68 68 67
10 12 11 11 14 16 17 18 21 25 27 25 24 25 26 27 30 32 33 33 25 12 10 13 10 9 10 9 12 13 12 13 12 12 12 12 13 12 12 15 17 16 14 14 19 19 18 17 14 14 15 14 15 16 16 18 18 21 24 26 30 31 39 42 39 49 59 65 74 78 83 83 78 79 78 76 79 81 82 84 83 76 74 75 72 69 67 65
9 10 10 11 12 14 16 17 19 24 26 26 24 25 27 27 30 33 32 32 31 19 11 12 11 10 10 10 11 12 12 11 11 11 11 11 13 12 11 14 16 14 13 16 19 17 15 15 13 14 15 14 13 13 15 16 15 18 22 27 31 31 37 42 41 53 65 65 67 74 85 91 86 84 84 82 81 82 83 83 86 83 76 74 74 72 69 66
7 8 10 10 11 13 15 17 21 23 24 25 25 25 26 28 30 31 31 31 31 25 15 12 13 11 9 10 10 11 11 8 9 10 10 11 11 11 11 11 12 13 15 16 15 15 14 12 11 12 15 13 12 12 12 14 15 14 16 22 29 32 38 45 47 58 75 77 67 66 77 88 90 86 83 88 90 88 87 85 86 86 82 79 77 73 69 68
5 6 9 8 10 12 12 15 20 21 22 24 25 25 25 30 32 31 35 35 27 21 15 11 13 10 8 10 9 10 9 8 8 8 9 10 10 10 10 11 11 12 15 16 15 17 15 13 13 13 14 13 12 12 11 14 17 14 13 17 24 33 42 47 47 53 73 78 63 62 74 85 89 81 76 89 96 92 90 89 88 87 87 84 77 73 72 71
4 5 6 7 8 10 10 12 16 18 21 25 25 24 25 29 29 29 35 35 24 17 13 10 10 8 8 8 8 10 10 9 8 7 9 9 9 8 9 12 10 9 13 14 14 16 14 12 14 14 14 14 12 11 13 16 15 13 13 18 28 37 43 43 40 47 63 65 57 61 74 87 89 77 77 92 98 95 94 92 89 87 89 86 77 74 75 74
4 3 5 6 5 7 9 10 14 17 20 26 25 23 26 30 31 34 37 31 20 14 10 9 9 7 7 8 8 8 8 9 8 8 8 7 8 8 9 12 12 11 13 11 13 15 13 13 13 15 15 15 14 14 17 16 12 13 16 22 30 34 38 40 40 49 58 59 63 64 59 69 86 85 86 94 96 97 97 93 90 89 89 86 78 75 76 75
3 3 4 5 4 6 7 9 13 16 20 25 23 22 27 30 30 33 37 29 17 12 8 8 8 7 7 8 7 7 7 8 8 8 8 7 8 7 8 11 12 13 11 9 15 14 11 12 11 12 14 13 14 16 17 15 13 15 18 24 27 30 38 41 40 48 53 53 62 66 53 53 76 91 93 96 96 92 90 90 87 86 87 83 75 72 75 77
3 4 3 4 6 6 7 10 13 16 20 22 23 24 24 32 37 33 31 27 15 10 9 8 8 8 8 8 8 8 8 8 8 8 8 8 8 7 8 9 9 15 19 16 15 14 13 14 13 12 11 13 14 15 16 15 13 15 21 24 21 32 47 52 56 54 50 53 56 59 54 47 61 83 92 93 90 82 81 88 88 84 86 82 73 69 71 74
4 3 3 5 5 5 8 9 10 15 19 21 24 25 27 40 48 38 28 22 16 12 10 9 9 9 9 10 10 9 9 10 9 8 9 9 9 8 8 9 9 17 30 26 13 14 15 11 14 13 10 14 13 13 15 16 18 19 25 22 15 32 41 42 55 47 38 52 55 52 52 47 53 67 76 80 80 79 77 81 86 84 84 81 72 66 68 69
4 3 4 4 3 5 7 6 9 14 18 24 23 26 40 44 37 36 33 24 18 16 12 10 10 10 10 10 10 10 10 10 9 9 11 11 11 12 10 14 15 14 27 28 14 15 16 11 16 13 11 14 13 15 14 16 22 17 24 32 31 44 38 29 47 44 36 47 45 43 47 51 56 54 59 69 70 75 76 72 77 80 81 79 68 62 67 69
3 4 4 4 4 6 6 5 8 11 18 26 22 30 54 49 32 39 42 27 19 17 13 10 10 12 12 9 10 11 10 10 11 10 12 12 12 13 11 15 17 11 20 26 16 15 15 15 18 11 11 14 11 15 12 15 21 13 22 36 36 45 37 31 49 45 37 41 34 35 42 50 57 50 58 70 60 62 70 67 70 73 74 69 57 56 65 70
3 4 3 4 5 5 6 5 5 12 21 24 26 38 49 45 41 45 43 33 24 17 13 12 11 12 11 10 12 12 10 10 12 11 11 12 11 12 13 12 13 15 21 22 19 22 20 19 21 13 12 14 12 15 15 18 22 17 26 29 26 41 36 31 45 38 31 36 32 34 39 47 55 50 60 70 56 55 62 65 69 70 69 63 58 63 70 70
3 4 3 4 5 4 6 5 4 17 23 24 38 50 51 52 52 46 41 35 25 19 18 14 12 12 11 13 14 13 9 10 14 13 11 13 13 15 16 11 12 17 18 15 21 27 21 21 27 20 13 12 12 16 18 20 20 20 26 21 20 38 40 38 47 46 43 37 34 44 51 62 69 61 66 71 65 65 66 70 74 72 73 71 71 75 74 69
3 3 3 3 4 4 5 4 7 18 26 30 39 44 51 54 42 33 34 28 19 20 22 17 14 13 12 14 15 13 9 9 13 12 11 14 14 15 15 12 13 14 11 16 27 27 19 21 26 20 14 14 14 16 19 18 18 22 21 17 20 30 40 46 44 50 51 32 35 58 70 80 72 57 67 76 75 77 76 78 79 75 76 75 74 75 72 68
3 2 6 10 10 8 3 4 13 22 27 30 35 43 49 40 26 30 34 23 19 21 19 19 17 13 14 15 15 16 12 10 11 11 14 15 12 13 14 12 12 11 9 15 23 24 22 24 23 17 13 14 14 16 18 17 19 22 18 20 25 22 32 41 38 47 47 32 46 67 78 86 66 50 68 79 77 81 80 80 80 78 78 76 75 73 68 65
3 2 11 21 22 14 6 11 23 27 26 29 46 62 55 33 21 26 26 19 22 22 18 21 18 14 17 16 15 16 13 11 12 14 16 15 13 14 12 11 11 10 10 10 12 17 21 22 24 23 16 16 19 18 17 17 17 19 19 20 23 22 27 31 34 42 34 29 48 59 72 85 70 64 73 70 74 82 80 81 80 78 78 75 74 72 66 64
2 4 15 25 25 13 7 19 30 28 27 37 58 62 45 33 28 23 21 21 23 21 18 20 16 15 20 17 16 17 14 14 15 15 15 12 13 14 11 11 11 9 10 9 10 17 23 20 21 24 18 15 22 21 20 21 16 16 20 20 25 36 39 30 31 39 33 34 47 51 64 74 71 80 76 60 70 78 76 82 79 74 76 73 72 70 66 63
3 8 19 24 22 14 12 25 32 28 32 47 62 55 36 30 26 18 18 20 19 19 19 18 16 16 19 19 18 17 17 20 17 14 15 13 12 14 12 12 13 14 14 12 14 23 27 21 19 24 20 17 22 22 23 23 18 17 19 22 27 32 34 28 28 39 42 46 54 51 50 51 59 79 72 55 65 72 71 77 74 70 71 69 69 67 62 60
6 11 19 21 20 22 24 30 32 35 43 49 51 48 34 26 25 21 18 19 20 19 17 18 19 19 19 18 17 16 19 22 19 16 16 13 11 12 12 13 15 15 14 14 17 20 21 23 27 26 20 19 25 27 25 21 20 20 18 22 27 27 30 30 29 39 42 45 58 55 40 36 51 71 69 56 61 67 67 69 69 69 68 65 66 63 59 57
10 11 13 16 20 22 26 34 37 38 46 45 36 32 27 24 30 28 18 17 21 19 16 18 18 20 21 17 17 21 21 21 22 21 19 16 15 13 14 16 14 13 15 17 20 24 31 37 37 36 36 32 27 28 29 25 24 24 21 24 29 30 36 35 33 40 36 33 51 54 40 36 49 71 79 67 61 63 62 63 65 66 64 63 63 60 58 56
20 15 8 11 18 17 22 35 36 32 39 37 24 20 17 18 27 26 17 17 20 17 16 16 16 17 17 15 17 20 19 17 20 22 22 25 23 17 18 19 16 17 17 17 22 31 40 43 38 45 59 53 35 32 33 31 28 23 25 30 29 29 34 38 46 50 36 31 41 41 36 37 48 76 88 70 59 59 58 59 62 62 63 64 62 61 60 57
28 22 12 14 20 17 20 30 29 30 41 36 23 20 17 15 18 17 14 18 19 18 17 18 16 14 14 16 17 18 17 15 17 19 22 28 24 16 19 22 21 24 20 17 21 19 24 39 40 38 49 48 39 36 35 35 32 28 33 35 31 33 33 34 44 39 30 39 42 34 38 42 52 76 84 71 63 62 58 57 58 59 62 63 62 62 60 56
38 35 24 19 20 18 22 30 30 31 40 38 32 30 25 18 16 14 14 17 17 17 19 18 15 14 17 19 19 22 22 16 16 19 21 26 24 19 22 24 24 28 25 16 17 20 31 51 52 40 36 37 35 33 38 44 38 32 38 34 30 34 29 30 38 29 30 48 45 40 45 41 46 61 67 71 72 65 60 57 56 58 60 62 62 61 59 58
53 58 50 36 28 25 32 41 41 41 44 40 36 35 29 25 23 19 17 16 16 18 18 16 16 16 17 18 19 23 23 20 21 23 22 23 24 21 23 29 32 37 37 20 15 37 54 58 64 57 36 30 37 42 52 56 38 29 35 32 31 36 32 36 41 33 41 52 48 58 57 31 29 43 51 70 76 65 62 59 55 58 58 61 63 60 60 59
62 72 73 60 46 43 47 49 51 58 54 37 31 35 34 34 35 30 23 18 17 19 18 18 19 18 18 20 20 20 24 29 28 23 22 25 29 25 22 29 34 34 38 25 18 42 47 35 51 58 35 33 47 51 56 50 33 32 36 29 32 38 33 33 36 36 47 45 43 70 74 36 25 36 43 61 71 65 65 59 54 56 56 58 63 62 61 58
60 67 68 63 63 65 60 54 59 65 55 38 39 44 41 42 45 42 37 28 20 17 18 21 22 22 21 20 19 21 25 30 27 24 27 29 33 32 23 25 27 21 24 22 24 48 49 32 40 43 36 46 51 48 53 44 31 38 39 30 32 37 31 30 40 49 48 34 33 62 72 48 33 34 34 44 56 60 61 56 52 54 56 60 64 63 60 55
56 62 59 58 66 70 62 58 61 61 52 51 56 51 43 48 50 45 43 36 26 21 20 23 22 21 25 28 31 34 31 26 22 26 35 31 29 32 27 25 24 17 19 23 28 41 41 38 48 40 29 41 47 47 49 37 29 34 35 33 34 35 33 30 40 52 43 33 38 50 60 56 41 34 31 31 40 50 53 53 52 51 56 62 64 61 58 52
61 67 66 61 64 68 63 60 62 61 58 60 62 51 45 50 49 47 46 37 29 29 31 35 33 27 33 42 43 40 36 31 24 25 34 31 29 35 34 29 26 20 22 28 30 31 26 34 55 46 26 33 44 46 43 37 34 32 33 42 40 36 38 33 37 49 45 43 48 46 53 58 44 38 40 33 36 48 52 52 50 50 56 62 62 61 56 50
68 70 71 73 75 74 70 65 66 72 70 65 62 54 49 51 48 50 52 37 28 36 43 47 44 38 42 45 39 33 35 39 35 31 34 30 25 30 29 25 26 24 27 28 26 33 38 43 53 44 29 35 39 39 43 43 38 32 34 44 44 38 39 34 38 51 47 42 46 45 47 47 42 51 59 52 51 55 53 52 52 52 56 59 60 60 54 48
69 68 70 76 76 74 80 79 73 75 68 57 57 54 49 49 47 51 55 44 33 36 44 49 47 41 39 37 35 37 39 42 39 32 31 28 25 26 23 21 24 25 32 36 34 43 49 43 44 41 33 42 50 48 49 42 35 37 41 42 40 39 39 34 36 49 49 38 36 38 38 42 55 68 66 62 65 61 52 50 49 51 56 58 57 55 51 47
Wind_Speed
20 21 22 23 25 26 26 26 26 24 22 20 19 17 16 15 14 14 13 13 14 14 14 13 13 12 12 11 10 10 10 11 12 14 15 13 11 11 11 11 11 10 8 7 6 4 3 3 3 5 6 5 6 5 5 5 0 2 2 5 3 2 2 4 5 6 7 4 2 6 15 14 5 8 11 8 9 11 7 9 9 6 6 7 10 19 25 22
20 21 22 23 24 26 27 27 27 25 23 21 20 19 17 16 15 14 13 13 14 14 14 14 13 12 11 10 10 9 9 10 13 17 16 12 13 13 12 11 11 10 9 8 5 3 2 3 3 6 9 8 8 7 7 4 2 2 3 5 2 4 1 3 7 8 9 10 8 9 15 15 9 12 12 5 5 8 8 10 13 16 16 14 17 23 25 24
20 21 22 23 24 26 27 28 28 26 24 22 21 20 19 18 16 15 14 13 13 14 14 14 13 12 11 10 9 8 9 10 13 17 14 13 16 15 13 13 11 11 10 7 5 2 1 4 5 9 12 10 10 8 8 7 2 1 3 4 2 6 3 5 10 13 17 19 15 11 13 13 10 10 8 6 5 3 4 7 12 19 21 22 24 25 24 24
20 21 22 23 24 25 26 27 28 28 26 24 22 22 21 19 17 15 14 13 13 13 13 13 12 11 10 9 8 7 7 7 10 13 12 16 19 17 16 15 12 12 10 7 5 2 1 4 6 10 11 7 10 7 6 11 4 1 2 4 4 5 5 5 15 21 23 25 19 15 13 10 8 8 9 11 7 2 5 8 10 20 26 27 28 25 24 24
20 21 22 22 23 24 26 26 27 28 28 26 24 23 22 19 17 15 13 12 12 12 12 12 11 10 10 9 8 7 2 1 6 9 12 18 19 18 18 16 14 12 11 8 5 1 2 5 6 9 9 5 9 6 6 14 4 3 3 4 7 9 7 4 18 25 24 24 20 14 10 8 8 8 9 9 4 2 5 8 12 20 26 28 29 27 26 25
20 21 22 22 23 24 25 25 26 27 27 26 25 23 22 19 17 14 12 11 11 10 9 9 7 7 7 7 7 7 4 2 6 8 12 18 19 19 19 16 14 13 11 9 5 1 3 7 8 7 5 3 5 4 9 14 4 3 3 3 6 13 13 8 17 23 23 21 15 10 10 10 11 8 4 2 0 1 2 8 16 20 23 27 29 28 27 26
20 21 22 22 23 23 24 25 25 26 25 24 25 25 23 19 16 12 10 9 8 7 8 8 7 7 7 7 7 7 8 4 5 6 11 18 20 21 19 17 15 14 12 8 5 2 5 11 12 6 3 3 3 4 9 12 9 6 2 4 5 12 17 14 17 22 23 22 17 14 14 11 9 6 2 4 3 3 4 12 21 23 25 26 27 27 25 24
21 21 22 22 23 23 24 24 25 25 24 23 24 25 23 19 15 11 8 7 7 8 9 10 9 10 9 9 8 5 8 5 5 6 9 14 20 21 19 18 16 14 12 8 5 4 5 10 12 6 2 3 3 6 10 11 12 9 3 4 9 12 15 18 21 26 26 24 23 19 14 9 9 9 6 6 7 8 12 19 23 25 26 26 26 25 23 22
21 21 22 22 22 23 24 24 25 24 23 22 23 24 23 19 14 9 6 7 8 9 9 9 8 10 9 10 8 4 7 7 5 6 8 11 17 20 20 18 16 14 11 8 5 5 5 8 9 6 3 3 5 6 10 9 5 5 5 6 10 14 17 23 24 25 24 21 22 17 9 8 8 8 9 7 12 14 18 24 25 25 26 26 25 23 20 20
21 21 22 22 22 23 24 24 25 24 23 22 22 23 22 18 12 8 6 7 8 7 5 4 5 7 8 10 9 4 8 8 5 6 7 9 13 17 19 17 15 13 10 7 6 6 7 7 9 7 5 3 7 4 7 8 2 2 13 12 10 16 17 22 23 21 19 14 20 17 6 11 10 5 5 7 15 19 23 26 24 24 24 25 24 22 20 17
21 21 22 22 22 23 23 24 25 23 22 22 23 22 20 16 10 7 6 7 7 5 3 1 3 6 8 12 10 5 7 9 6 6 7 8 11 14 16 14 13 10 8 7 7 6 7 7 9 7 3 3 6 4 5 7 2 9 25 15 8 13 13 15 18 18 15 9 16 22 10 13 14 6 3 9 17 21 25 25 23 22 23 24 23 22 21 18
22 21 22 22 22 22 23 24 24 22 21 22 23 21 17 13 8 5 5 5 5 5 4 5 6 6 8 11 9 4 7 9 7 6 7 8 9 12 13 11 9 9 9 8 6 5 6 7 8 6 3 3 3 3 5 6 5 17 25 12 5 9 8 6 5 8 12 8 6 15 10 9 9 5 4 12 18 21 24 24 21 21 21 22 22 22 21 19
22 21 22 22 22 22 23 23 23 22 21 22 22 19 15 11 6 4 4 4 5 5 4 6 6 6 3 5 5 4 7 8 7 6 7 8 8 11 12 11 10 11 11 8 5 4 5 6 6 6 5 5 2 1 3 4 8 12 11 8 4 6 3 4 4 6 10 8 3 5 4 4 5 4 7 14 18 21 21 20 20 20 21 21 21 21 20 19
22 21 21 21 22 22 22 23 22 21 20 22 22 18 13 10 6 5 4 3 4 4 3 2 3 3 3 2 4 6 8 8 7 7 8 7 8 10 11 12 13 13 11 7 5 4 5 5 5 5 6 4 2 2 4 5 7 6 4 4 3 4 4 5 4 3 3 2 4 5 5 4 4 2 8 15 18 21 19 16 17 18 20 21 22 21 19 18
23 22 21 21 21 21 21 22 21 20 20 21 23 20 13 10 7 5 5 3 3 3 1 1 3 6 6 1 5 7 9 7 7 8 8 7 7 10 13 14 13 10 8 5 4 4 4 4 4 4 4 4 3 4 4 4 4 3 4 1 2 4 4 6 4 3 1 1 4 8 5 3 3 1 7 15 18 19 18 14 15 17 19 20 22 22 21 19
23 22 21 20 20 21 21 21 21 19 20 21 23 22 13 10 8 4 4 4 3 2 2 5 6 5 4 1 5 8 9 8 8 8 8 8 8 11 14 13 10 7 5 4 3 3 1 3 4 4 3 4 5 5 4 4 4 4 3 3 2 4 4 3 4 5 3 2 5 6 5 2 2 3 7 14 18 18 16 14 14 16 18 19 21 22 22 20
24 22 21 20 20 20 20 20 20 18 20 20 22 21 13 10 9 5 4 5 4 4 5 8 7 5 2 2 4 6 8 9 8 9 10 11 10 11 13 10 6 4 4 4 3 2 0 2 1 1 4 5 3 5 4 3 2 3 3 2 3 4 5 2 4 5 4 5 3 6 5 4 2 6 8 10 17 19 16 14 14 15 17 18 19 20 21 21
24 23 22 20 19 20 19 19 19 18 18 18 21 20 12 10 9 6 4 5 5 6 7 5 2 2 1 3 1 3 7 10 10 10 11 11 12 11 10 7 5 5 4 3 1 1 1 0 2 1 3 4 3 6 4 3 4 3 3 3 2 2 3 4 4 4 4 6 4 6 5 4 4 8 8 6 13 17 16 15 15 15 17 17 18 19 19 21
24 23 22 21 19 19 17 18 17 17 16 15 19 18 10 11 9 4 5 8 8 6 4 2 2 1 2 2 2 2 6 11 10 11 12 12 13 12 10 7 5 5 4 2 1 1 2 1 3 2 1 1 2 5 6 7 7 6 5 4 5 4 3 4 1 2 6 8 5 4 6 6 6 7 7 6 8 14 16 14 15 15 16 17 17 18 18 19
24 24 23 21 19 18 17 17 15 15 13 12 18 15 9 13 7 2 11 14 11 9 8 8 9 8 8 5 4 6 7 10 11 12 14 13 14 11 8 6 4 3 2 2 2 1 3 2 1 4 5 5 6 8 6 4 6 6 6 5 6 6 2 1 2 5 4 6 4 2 7 7 7 6 7 8 8 11 15 14 14 15 15 16 15 15 15 15
24 23 23 22 20 18 16 15 13 12 10 10 15 13 9 12 5 6 14 13 10 8 11 11 10 12 10 4 2 5 6 9 11 12 13 13 12 9 5 4 4 2 2 2 2 1 3 2 4 7 7 8 8 7 5 6 6 5 5 6 4 4 2 2 3 3 3 6 2 2 9 5 3 4 5 10 9 7 12 14 15 15 15 15 15 14 12 12
24 23 23 22 20 18 16 15 11 9 8 8 11 13 10 10 5 7 10 10 12 11 11 11 10 12 9 4 3 6 7 7 8 11 13 13 12 8 6 4 5 2 2 1 2 3 4 2 8 8 7 6 2 3 6 5 6 5 4 6 4 4 4 2 3 5 5 4 1 3 8 2 2 2 4 7 7 5 9 12 15 18 16 15 15 14 12 11
23 23 23 22 20 18 16 14 9 7 7 7 8 11 13 11 5 6 6 8 13 12 10 10 10 10 6 4 7 12 10 6 8 12 13 14 13 9 8 6 4 4 1 3 5 2 1 4 6 5 7 7 5 4 8 6 4 4 5 6 5 6 5 2 1 5 6 4 5 7 6 2 3 2 2 4 4 5 7 9 13 18 17 16 15 14 13 12
23 23 23 22 20 17 16 14 8 5 6 8 7 9 14 12 5 5 5 5 8 9 7 6 6 6 5 5 10 16 12 7 9 13 15 16 14 9 8 6 5 3 1 4 7 4 5 6 4 6 7 7 7 5 7 7 4 2 4 6 7 7 4 4 4 3 6 7 6 8 5 4 3 1 2 1 2 4 6 8 11 15 16 16 15 14 13 12
22 22 23 22 20 17 16 13 6 5 7 8 8 9 14 13 6 5 4 1 4 6 3 4 4 4 5 6 11 15 11 7 9 13 17 18 15 8 5 4 4 1 3 4 6 3 7 5 3 5 6 5 7 6 4 5 5 2 2 6 9 9 8 10 8 5 6 4 2 6 4 4 4 2 6 2 0 3 4 7 11 13 15 17 16 15 15 14
21 21 21 21 20 17 14 9 5 7 9 7 7 9 14 12 7 5 2 3 3 4 2 4 4 4 6 8 13 13 6 4 8 14 17 17 14 8 4 2 1 1 4 4 3 3 4 3 3 5 7 5 5 5 4 4 8 2 3 6 8 10 12 12 10 5 4 3 3 4 4 3 4 4 7 3 2 4 3 6 10 13 15 17 17 16 16 16
20 20 20 20 20 18 14 9 9 10 8 6 7 10 13 10 6 4 2 4 3 3 2 3 4 6 6 9 15 11 3 4 10 13 17 17 14 7 4 2 1 1 3 4 1 2 2 4 6 6 6 5 4 4 5 6 8 3 4 8 11 12 13 12 9 5 3 4 3 4 4 2 2 5 5 5 5 5 5 6 10 14 17 18 18 18 17 18
19 19 20 19 18 18 15 12 11 9 6 6 8 10 11 7 4 1 3 3 3 1 3 3 4 6 6 12 18 10 4 9 9 10 17 18 13 6 2 5 5 4 2 5 2 5 2 2 4 7 6 3 3 4 7 7 6 3 5 9 9 10 11 9 7 5 1 4 2 3 2 2 4 5 1 4 5 7 9 10 10 15 19 20 20 20 19 19
19 19 19 18 17 16 15 13 10 6 6 7 8 9 8 4 2 2 4 1 2 1 2 4 4 5 5 10 14 7 3 6 4 8 16 16 14 6 1 5 7 5 1 4 4 6 2 3 7 8 6 4 4 3 6 6 5 5 8 8 7 6 6 5 5 5 4 3 4 7 5 2 4 4 1 3 5 10 12 9 11 17 21 23 23 23 22 21
19 19 19 18 17 15 14 12 7 5 7 7 8 9 5 2 1 4 1 2 1 1 0 4 3 3 5 6 4 4 1 1 2 9 10 10 12 7 3 3 4 6 2 4 2 6 4 1 3 4 3 6 4 3 3 3 5 9 8 8 8 7 6 5 4 5 5 1 6 7 7 4 3 4 5 6 5 9 10 7 9 15 21 25 25 25 25 24
19 19 19 18 17 15 15 11 6 5 7 7 8 7 1 2 4 5 3 3 1 2 1 2 1 2 7 5 2 2 1 2 2 7 5 3 6 4 4 3 2 5 4 5 1 5 5 3 1 1 2 5 7 5 3 5 5 7 5 5 6 4 4 4 5 4 3 4 7 4 5 4 3 5 6 8 5 3 10 11 11 16 22 28 29 28 27 26
19 18 18 18 17 16 15 12 8 6 6 6 6 2 3 2 2 2 3 3 1 2 1 2 2 2 4 3 2 3 2 0 0 4 4 3 4 3 3 4 3 2 3 3 2 4 1 2 3 3 1 4 6 5 3 5 5 6 6 6 5 3 3 2 2 0 3 6 4 2 4 4 5 7 6 9 8 5 10 15 18 22 26 29 31 31 29 28
19 18 17 17 18 17 15 12 9 7 6 5 3 0 5 4 2 4 3 2 1 2 1 1 0 3 5 3 2 2 2 2 2 1 2 2 2 3 3 2 5 4 1 3 1 1 1 4 6 2 1 3 5 6 3 1 3 5 5 5 4 3 3 1 3 1 3 5 3 0 1 1 5 5 5 7 9 11 16 20 25 28 30 33 35 33 31 30
18 18 17 17 16 16 14 12 9 7 6 5 1 3 5 2 4 3 3 3 2 2 1 2 1 3 5 3 3 3 2 3 2 3 2 3 2 3 3 2 3 4 3 3 2 3 3 3 3 3 3 2 4 4 7 6 4 2 4 6 5 5 5 3 4 3 3 4 2 2 1 3 3 3 6 8 10 13 18 23 25 28 31 34 33 32 32 32
18 16 17 15 13 13 12 11 10 8 7 6 2 5 4 4 4 2 3 3 2 2 2 1 3 4 2 2 3 1 3 3 2 4 2 2 4 4 3 4 4 4 5 3 2 2 4 5 7 3 1 4 3 3 5 7 4 0 2 4 3 4 5 3 3 5 3 1 1 2 2 4 4 4 4 4 7 9 15 21 23 25 29 28 28 31 33 34
16 14 13 12 11 10 9 9 10 10 10 6 4 2 4 4 3 3 3 2 1 2 3 4 3 4 2 2 3 3 1 0 1 2 2 2 4 5 3 4 6 6 6 5 3 1 2 5 7 3 2 3 2 3 3 3 3 2 2 2 3 3 7 6 2 0 4 2 2 2 3 4 4 4 4 4 1 3 9 16 20 24 27 27 29 33 35 36
16 12 8 7 8 10 9 9 11 12 10 5 4 3 5 3 4 4 1 1 1 1 2 2 1 2 3 2 2 3 1 0 0 1 3 2 3 5 4 4 5 9 9 6 3 3 4 3 6 1 3 2 3 7 8 6 3 4 3 4 4 3 5 5 2 3 5 1 3 2 3 5 3 2 5 5 1 4 5 9 14 20 24 27 31 35 37 37
17 11 5 4 6 8 10 12 13 13 8 3 2 4 3 2 3 2 2 3 1 1 3 2 2 2 3 3 3 2 2 3 2 2 2 1 3 5 5 4 5 11 13 7 2 2 5 1 7 2 3 1 4 7 6 7 6 4 6 5 4 4 2 2 3 2 2 0 3 4 4 3 2 3 5 4 6 7 6 7 10 15 23 28 31 35 37 37
18 10 3 5 7 4 13 15 14 10 5 3 3 3 2 3 5 3 3 3 0 1 1 3 2 1 3 4 3 2 3 4 4 3 3 2 4 3 3 3 4 9 13 8 4 2 4 2 5 3 1 2 4 3 2 1 6 6 5 4 3 3 4 2 2 3 3 2 2 3 4 3 5 6 5 7 9 9 9 9 10 16 26 31 33 36 38 39
15 6 2 6 6 6 16 15 11 7 3 2 4 3 2 3 4 5 5 4 2 1 2 3 2 2 2 3 3 2 2 3 5 3 2 3 4 4 3 4 1 2 4 4 4 2 4 2 4 3 3 1 1 2 6 6 3 3 3 1 1 2 2 2 1 2 3 4 3 1 2 5 7 5 7 10 9 10 13 12 12 19 28 32 35 38 40 41
11 3 2 5 4 8 14 11 6 3 2 2 3 2 3 2 2 5 8 5 5 5 4 4 3 2 3 2 2 2 2 2 4 3 2 4 4 3 4 5 3 5 4 4 2 3 2 3 4 2 1 3 4 5 5 7 6 6 5 4 4 4 4 3 1 2 1 3 4 4 2 8 7 4 7 9 6 10 15 15 14 20 28 32 36 39 40 41
9 2 1 2 1 7 10 6 1 1 3 2 2 3 4 3 3 4 5 3 5 5 3 3 3 3 3 2 2 2 3 2 2 1 2 4 5 5 4 1 3 8 7 2 3 3 3 4 4 2 4 5 6 7 2 4 5 6 3 3 5 4 5 6 2 4 0 2 2 4 2 7 6 4 5 6 6 12 18 19 17 21 29 33 36 37 38 38
10 7 3 1 1 7 8 2 3 1 2 2 3 4 4 3 2 2 3 2 3 2 1 2 2 2 2 3 2 3 3 3 3 2 2 3 4 6 5 3 2 7 6 3 3 2 3 4 4 1 4 4 5 5 3 4 5 5 1 2 5 3 3 5 4 4 4 2 2 2 2 7 6 4 4 6 8 12 17 21 22 23 27 31 32 33 34 34
13 10 4 1 2 7 7 3 2 1 3 3 4 4 5 4 3 3 3 2 2 1 1 2 3 2 2 2 3 2 4 2 2 2 2 2 3 3 4 3 4 6 3 3 6 6 4 2 4 4 3 4 5 5 5 4 1 3 1 1 3 5 6 4 2 3 2 4 5 4 4 7 6 4 4 4 6 9 15 23 25 25 26 28 30 31 32 32
11 7 4 4 1 5 4 2 3 2 1 3 4 5 5 4 4 5 5 5 4 2 1 2 2 2 1 2 3 2 0 1 1 2 1 2 3 3 6 5 3 5 3 4 9 9 5 2 4 6 4 3 3 3 3 2 1 1 1 2 2 5 7 4 3 4 2 3 4 5 5 7 7 6 5 4 5 8 13 19 23 25 25 27 30 31 31 31
6 3 4 6 5 7 8 7 5 2 2 2 2 3 3 3 6 7 4 3 4 3 3 3 1 2 2 2 3 2 2 1 1 0 2 1 3 3 6 7 3 3 5 9 10 8 5 2 3 7 8 9 8 7 6 3 3 2 2 4 3 3 5 5 5 4 4 4 3 6 6 4 9 8 5 5 7 9 11 15 22 26 25 26 29 31 31 31
4 2 3 4 5 6 7 9 10 5 0 1 0 2 4 3 5 7 3 0 4 4 2 0 2 1 1 1 3 1 0 2 3 1 1 1 3 4 5 6 6 4 4 5 4 5 5 2 3 6 6 7 6 4 2 3 4 5 5 4 3 3 5 6 4 4 5 5 5 9 6 5 8 9 8 9 9 9 10 16 24 27 27 29 29 29 30 31
3 1 2 3 2 1 2 6 9 6 3 1 1 1 5 5 5 5 4 6 8 6 3 1 2 2 3 4 4 3 1 1 2 1 1 1 1 3 5 4 3 5 4 3 4 4 6 2 3 4 2 1 2 1 1 2 2 3 6 5 4 5 6 6 6 6 7 6 8 7 7 8 9 9 10 11 11 13 16 19 22 23 25 27 28 29 31 33
4 1 2 4 1 2 2 7 8 4 3 3 2 3 5 5 6 4 4 5 6 7 6 2 3 5 4 2 3 4 3 2 1 2 3 1 0 1 2 1 2 5 5 4 4 3 4 2 2 3 4 3 1 3 2 2 2 1 3 5 5 6 8 8 6 6 8 7 8 4 6 9 10 9 12 11 11 15 17 17 18 21 24 26 28 31 34 35
5 3 3 4 2 2 5 7 5 2 3 5 3 3 4 4 5 6 4 2 3 6 7 4 6 8 4 2 5 4 2 3 2 3 4 4 1 2 3 3 2 3 5 3 2 4 4 2 1 3 4 1 2 1 2 2 4 4 3 3 3 3 5 5 4 3 4 6 8 3 4 8 9 10 12 12 10 12 14 16 20 23 25 28 31 33 35 37
4 5 6 4 2 5 6 5 3 3 3 5 3 3 4 3 5 7 5 3 0 3 5 7 9 7 2 4 7 4 3 4 7 8 6 4 5 5 3 3 6 3 3 1 1 4 4 3 2 5 3 4 4 2 1 3 2 1 4 6 5 3 3 4 3 4 5 4 4 2 3 7 7 5 6 8 8 12 14 17 21 23 26 31 33 35 37 38
4 3 6 3 1 5 5 3 3 3 2 3 3 3 3 4 7 8 4 3 0 4 8 11 6 3 2 5 5 7 15 16 15 14 12 10 12 12 8 4 6 5 3 3 2 2 4 5 2 3 3 4 5 1 2 4 2 3 6 7 7 4 4 3 2 5 6 5 4 4 6 7 5 2 3 5 6 9 15 20 23 24 29 33 35 37 39 38
Wind_Direction
340 343 345 347 349 349 347 346 345 342 338 334 331 328 320 313 309 305 299 293 287 284 284 282 280 279 276 276 271 264 253 247 244 234 218 208 204 200 197 191 182 185 195 202 208 206 235 282 288 304 320 333 353 9 357 335 227 161 97 77 94 119 115 171 173 155 142 121 87 123 129 125 115 122 123 122 114 109 95 66 83 83 74 142 154 152 162 164
339 342 343 346 348 348 347 345 345 342 338 333 330 328 322 317 312 307 299 293 287 284 283 280 279 276 275 274 268 266 257 250 245 232 214 197 198 196 191 187 182 186 200 213 214 218 257 323 337 334 351 13 0 351 6 7 118 111 96 88 155 188 95 121 144 136 129 123 111 109 126 131 131 135 139 136 112 107 87 76 90 93 98 123 141 154 161 163
338 340 342 345 347 347 346 345 344 342 339 333 329 327 323 319 314 308 299 292 286 284 282 279 277 274 273 268 265 268 263 260 248 232 208 188 194 192 191 191 187 192 207 218 219 248 325 3 355 350 2 16 356 352 21 18 37 73 92 86 224 190 95 82 121 121 125 125 114 109 123 123 129 143 148 140 108 92 122 117 106 110 120 131 142 153 158 161
338 339 341 344 345 345 346 346 344 342 339 334 330 327 325 321 316 309 299 292 287 285 283 279 276 271 269 263 264 265 268 274 249 229 197 188 191 190 193 194 192 197 206 217 226 246 29 12 352 3 15 12 355 10 32 9 20 108 99 138 202 165 94 96 126 124 126 129 126 126 123 106 120 150 145 133 111 322 212 170 142 136 140 141 146 153 156 161
338 338 339 342 342 344 345 345 344 342 339 335 331 328 328 325 320 311 300 293 289 287 283 280 275 268 263 258 260 249 255 329 219 202 185 187 187 187 191 193 195 201 205 213 219 200 41 13 2 21 32 5 359 32 9 356 39 90 358 173 165 126 102 131 133 128 132 133 127 118 105 96 111 123 135 138 132 248 218 181 157 148 149 150 153 156 161 166
338 337 338 339 340 343 344 344 344 342 339 335 331 330 331 329 324 315 301 294 291 287 280 275 267 257 248 244 251 231 202 144 167 175 183 184 182 184 188 194 198 203 208 211 212 115 49 33 35 42 41 12 13 39 352 352 51 102 14 142 140 122 123 148 134 130 133 120 102 97 102 109 108 98 111 110 50 214 207 166 154 148 152 155 157 161 167 171
339 337 337 337 339 341 343 343 342 341 338 334 331 329 332 332 327 317 305 299 291 284 276 268 256 244 233 229 235 226 228 216 150 161 185 185 185 184 185 195 200 204 208 206 206 122 65 42 48 58 46 36 22 3 2 19 57 71 93 95 89 114 124 138 127 123 121 105 98 110 115 110 106 118 117 64 87 160 147 149 149 147 152 156 160 166 171 176
339 337 336 336 337 339 341 342 341 340 337 333 330 328 331 332 327 318 308 305 292 289 282 271 258 242 232 226 224 232 234 214 140 147 173 185 191 186 183 193 199 204 206 203 196 132 66 42 46 44 61 62 5 355 11 35 49 42 53 89 96 108 118 126 117 115 112 110 117 112 102 97 99 105 74 65 110 140 142 143 146 147 154 159 163 170 174 179
340 337 335 335 336 338 340 340 339 338 336 333 329 327 330 331 326 316 310 313 303 297 286 272 255 235 229 218 209 224 214 187 136 134 152 176 187 187 185 191 199 203 204 201 178 126 66 46 35 25 105 90 13 13 25 44 36 9 55 89 114 113 118 120 112 113 113 116 117 99 73 69 87 94 56 73 126 137 141 142 147 150 156 163 167 173 176 180
339 337 335 334 335 338 339 339 338 338 336 333 329 327 328 328 323 314 313 320 316 312 299 271 232 214 209 192 178 187 194 179 146 129 132 151 167 180 186 192 200 201 198 188 155 114 68 49 28 35 109 63 22 25 43 65 331 347 86 81 102 115 122 121 117 119 111 106 104 95 62 37 53 95 65 105 134 141 142 142 150 153 158 165 171 176 179 181
339 337 335 334 335 337 339 339 338 337 337 334 331 330 330 327 320 313 319 326 333 350 3 107 166 178 177 174 174 173 171 165 149 136 131 141 154 170 183 191 197 195 185 162 133 106 69 48 32 43 101 15 12 25 59 69 29 114 106 82 56 99 111 114 125 133 112 99 98 93 74 31 40 58 89 131 140 146 144 144 151 152 158 167 172 178 182 188
338 337 335 335 335 338 339 339 338 338 339 337 336 337 337 333 323 321 328 339 359 21 61 105 123 135 158 176 181 148 140 149 148 151 152 152 160 171 179 187 188 179 165 145 121 101 72 46 31 33 59 45 11 29 50 44 82 120 112 95 24 67 106 122 145 166 126 122 102 81 64 12 17 28 105 138 145 147 144 147 153 154 161 169 174 180 184 191
337 337 335 335 336 338 339 339 338 338 341 342 343 345 348 347 337 331 339 358 20 45 85 97 106 106 131 185 184 139 138 148 155 167 170 168 168 170 175 175 164 154 149 138 123 100 67 38 22 25 46 67 67 28 15 32 103 120 101 104 105 62 143 206 266 230 140 128 323 41 75 317 335 37 120 146 151 147 142 150 158 160 166 171 177 182 188 195
334 336 335 335 336 338 339 339 337 338 341 344 348 349 351 355 346 335 341 356 24 40 70 75 65 17 333 219 177 165 154 152 169 178 178 181 170 156 157 154 145 145 143 132 123 94 55 28 13 29 48 63 83 35 6 29 89 116 83 80 104 120 204 260 263 246 138 136 344 65 125 254 286 49 126 152 158 151 145 152 163 167 171 174 180 184 193 202
332 334 335 334 335 338 340 340 338 338 339 341 347 346 342 346 344 335 338 336 357 6 334 282 333 334 324 209 172 174 167 166 172 174 173 176 167 148 142 140 142 145 144 133 113 79 47 13 6 30 53 57 68 50 19 21 33 65 108 76 348 142 208 291 246 214 128 207 18 70 126 248 250 190 139 154 163 158 148 155 168 174 179 180 185 189 197 207
330 332 334 334 335 337 340 340 338 337 337 338 344 344 336 335 335 326 328 323 324 334 274 280 298 322 342 133 170 177 184 184 166 165 167 155 150 144 138 137 136 140 145 137 114 97 57 357 17 35 57 73 82 78 47 28 3 357 100 181 241 151 186 291 239 222 131 145 5 46 135 199 241 164 144 156 165 162 150 157 172 178 185 188 191 195 199 207
330 330 332 333 334 337 339 340 339 337 337 337 341 342 337 332 328 310 307 311 312 303 292 289 287 298 314 150 164 180 188 186 169 163 160 147 144 141 138 135 118 128 155 148 147 152 113 1 59 49 53 69 81 84 62 24 315 316 55 144 211 170 172 175 232 232 108 98 15 39 112 171 163 125 131 155 165 163 155 159 174 179 186 194 198 202 204 210
329 329 331 332 332 335 338 340 339 337 337 338 342 342 336 333 323 297 299 312 306 299 305 298 285 331 221 168 159 211 184 172 165 159 158 153 149 144 139 128 109 127 139 128 184 193 172 357 86 64 24 32 45 79 107 200 194 191 138 129 183 185 197 184 203 218 103 78 73 79 101 142 122 109 116 144 162 163 158 160 172 177 184 192 200 206 210 216
328 328 330 330 331 334 337 340 338 336 338 340 345 344 337 338 324 276 319 318 299 289 302 274 247 328 230 250 23 121 160 158 158 156 158 156 150 149 140 127 122 120 88 70 287 55 123 94 63 85 304 294 162 145 177 195 163 157 152 141 161 170 228 212 164 28 98 84 58 99 126 140 134 120 121 136 157 154 151 157 165 171 179 185 194 204 211 219
326 327 328 328 330 333 335 340 337 335 339 341 350 356 355 355 351 300 329 315 292 279 276 274 274 274 271 298 66 107 135 151 157 154 155 157 155 152 144 136 113 85 65 132 217 292 102 95 173 198 209 194 199 198 181 140 121 130 127 132 174 171 178 165 62 7 78 92 10 70 130 142 146 131 126 143 153 149 150 155 161 167 173 178 187 196 206 216
324 324 327 327 328 333 333 337 336 332 335 335 354 12 17 6 1 323 331 316 294 282 279 283 277 273 273 281 104 124 141 156 163 159 160 166 164 159 165 160 98 65 281 190 172 307 82 90 232 220 202 186 203 203 149 99 113 132 143 147 169 169 150 103 106 353 24 88 18 98 121 127 142 115 120 143 152 162 164 164 166 169 169 173 178 182 188 198
322 322 324 324 326 331 330 334 331 322 323 322 353 16 13 360 337 315 324 303 295 290 283 283 269 271 271 254 214 171 161 168 177 176 175 176 177 178 176 140 108 162 266 90 99 4 28 289 249 228 189 163 158 146 123 114 129 126 141 142 144 165 137 69 44 8 22 93 90 121 124 123 317 68 106 145 162 186 184 180 176 174 173 173 173 172 174 177
320 320 321 321 324 327 328 330 320 303 309 302 335 4 359 349 330 314 300 277 294 292 279 273 262 268 265 222 197 181 172 176 187 190 187 185 189 187 167 129 114 161 131 113 142 108 337 248 230 193 162 135 76 87 118 109 99 111 132 131 156 186 151 115 15 18 33 81 127 123 107 341 326 38 102 151 173 183 197 206 188 180 181 181 180 179 178 178
318 318 319 319 321 324 327 326 306 285 300 290 299 339 347 338 310 302 290 262 290 289 272 259 251 258 245 197 187 185 180 174 182 191 191 190 187 177 171 149 120 146 178 148 140 155 235 233 178 119 122 126 106 113 128 112 75 49 140 140 155 176 137 119 144 96 44 47 110 115 65 324 306 212 199 187 150 157 179 203 196 188 187 186 189 190 188 186
317 317 317 317 318 321 328 325 294 272 300 291 280 309 335 330 300 290 301 309 295 283 256 213 215 223 201 175 182 184 180 179 183 190 192 191 183 166 170 158 124 175 204 149 128 195 259 254 176 105 82 96 113 133 178 141 105 28 210 169 159 151 117 115 128 104 60 29 199 126 87 279 296 252 225 256 250 168 164 191 201 196 189 189 194 197 197 194
316 315 315 316 315 317 327 323 290 295 307 290 275 306 327 324 304 283 312 41 309 270 183 171 183 185 178 168 172 168 165 203 187 185 188 188 183 157 140 155 85 171 179 152 134 214 270 8 85 111 98 90 97 131 202 147 109 104 204 158 140 130 121 134 141 113 113 194 217 115 124 238 305 270 227 210 215 223 208 207 212 205 193 191 196 200 201 196
315 314 313 314 314 316 321 317 305 308 306 284 289 314 322 318 306 283 351 38 298 253 141 166 170 174 180 169 168 157 135 180 162 174 185 185 188 167 151 210 50 153 164 121 62 243 229 37 60 89 88 94 110 147 192 140 110 150 184 135 131 137 141 156 149 122 164 161 86 67 103 123 290 261 223 167 187 238 244 230 224 214 202 193 197 201 199 195
314 313 311 311 312 313 314 313 312 311 294 286 303 318 322 316 297 281 78 68 265 244 133 175 160 167 172 166 175 174 144 153 144 178 187 183 191 184 195 220 172 165 145 121 207 269 209 154 147 119 89 117 175 196 181 134 98 170 164 131 136 143 147 155 133 104 110 110 118 248 125 109 260 271 263 158 193 234 231 224 220 216 207 196 196 201 200 197
313 311 308 306 307 306 306 307 310 307 288 289 304 318 323 303 276 69 86 113 262 336 138 168 153 174 164 157 183 204 151 149 131 175 179 177 187 184 199 215 165 139 95 110 184 250 248 198 185 132 112 190 201 205 175 125 85 139 123 92 84 82 85 91 103 97 62 80 208 219 178 173 268 275 213 159 213 228 222 217 213 213 209 199 198 202 202 199
310 310 305 301 303 301 300 302 302 302 293 289 303 317 315 221 87 70 99 248 258 344 159 173 175 173 142 127 204 254 153 165 88 136 155 167 180 177 129 166 121 108 36 24 155 246 301 4 171 122 132 183 143 102 140 87 109 133 102 71 71 49 42 52 52 76 72 324 251 222 184 180 277 268 200 182 220 215 198 199 207 210 210 202 202 204 202 200
308 307 302 297 298 295 294 296 295 296 289 287 311 321 282 140 72 96 187 251 254 321 5 176 228 143 140 133 216 245 101 329 70 127 143 133 150 150 109 130 81 69 12 359 322 285 338 79 168 260 160 131 95 76 59 37 80 113 84 89 101 27 16 41 5 43 105 250 265 238 169 154 244 260 216 214 249 194 176 192 197 202 207 204 203 205 202 201
306 302 297 292 290 286 285 287 284 282 276 287 317 317 132 85 37 168 243 314 339 255 230 184 216 151 144 129 183 206 139 240 322 124 152 127 125 163 163 177 169 75 337 289 259 317 2 159 303 329 189 141 99 83 52 18 39 85 79 88 98 20 19 50 321 157 190 245 254 175 132 143 234 249 224 224 245 222 192 198 197 198 201 202 203 205 204 202
307 301 294 284 282 280 278 279 272 262 263 274 294 271 96 80 214 215 257 309 201 243 237 143 109 118 132 138 203 205 122 199 236 110 128 107 123 227 250 190 149 127 224 213 186 332 291 306 328 23 206 193 129 121 151 284 44 106 123 111 106 84 72 277 265 254 256 252 239 250 136 193 269 268 211 213 236 227 209 205 204 201 199 201 204 205 205 205
310 305 293 280 278 277 274 270 255 239 240 237 220 81 90 119 231 223 249 258 247 286 21 83 64 97 131 179 233 196 159 229 197 124 104 80 103 245 260 215 160 115 115 135 159 158 151 284 278 172 193 182 144 157 165 148 96 109 153 131 133 148 151 206 224 200 245 248 240 320 296 187 226 238 202 221 254 241 214 207 206 204 203 203 204 205 207 207
316 308 297 287 281 275 267 253 233 213 211 207 105 76 133 210 247 221 229 255 298 316 331 44 108 120 158 272 295 236 187 230 159 118 138 146 171 207 201 198 191 131 119 153 223 134 133 233 254 262 221 135 143 193 138 104 86 89 131 109 133 171 148 147 186 179 179 242 258 280 244 207 223 247 246 266 271 241 206 198 195 199 203 202 203 207 209 209
321 313 302 290 276 265 254 235 214 197 195 178 89 93 193 215 222 189 204 239 326 322 337 2 69 120 198 283 312 321 3 228 119 125 201 200 192 205 209 214 190 163 153 162 196 142 124 255 279 321 21 61 114 158 96 77 144 138 104 155 205 165 117 118 172 89 70 90 257 272 270 299 321 290 305 3 2 193 186 186 186 192 196 198 202 207 209 210
327 326 316 294 274 258 237 211 190 186 189 154 116 203 223 226 201 187 224 316 307 10 69 36 32 146 179 202 270 296 324 234 228 176 224 259 226 199 207 238 194 181 187 169 184 195 150 247 295 10 93 32 94 110 69 44 108 130 159 186 175 132 94 100 120 22 46 119 270 317 281 293 345 307 303 350 87 179 186 181 181 186 191 197 203 206 209 210
334 337 338 330 302 258 209 184 176 180 178 130 156 231 226 223 212 198 321 331 319 44 89 143 210 181 166 171 229 265 169 191 223 188 187 250 252 200 174 205 198 197 203 186 175 209 130 209 293 300 158 275 60 92 63 24 39 105 155 147 120 137 132 72 110 133 104 199 285 315 308 270 208 226 276 274 203 195 193 182 179 185 191 198 203 206 209 211
335 335 5 11 342 227 174 169 175 176 152 128 217 246 220 243 268 270 306 321 308 99 120 206 196 109 138 158 187 199 151 181 201 188 168 181 240 234 176 199 213 207 205 180 165 191 109 138 266 300 263 277 32 73 159 20 29 59 88 58 40 129 155 158 141 153 156 157 260 305 329 282 226 215 223 229 213 187 178 188 194 194 195 199 202 205 208 210
332 334 72 22 8 158 160 162 169 163 133 177 204 230 249 264 278 273 288 296 241 178 205 211 171 112 161 170 187 187 144 159 170 180 209 190 219 258 233 217 202 174 178 127 123 131 75 119 223 294 329 213 163 197 185 170 126 89 79 16 2 94 127 149 107 103 130 142 173 235 302 271 251 208 200 225 219 185 183 193 198 199 199 201 203 205 207 210
343 1 87 28 41 150 157 158 164 151 134 189 201 228 265 287 283 279 286 270 233 238 223 186 169 170 170 172 207 195 125 126 164 183 213 196 210 247 226 212 179 138 107 80 123 163 133 147 176 219 244 183 235 264 208 175 162 148 160 180 159 135 126 112 3 310 84 129 166 163 231 267 259 204 209 228 208 188 196 195 197 203 202 203 205 206 208 210
357 347 277 6 66 167 165 160 163 138 154 189 241 249 270 293 276 280 289 246 222 244 233 183 182 182 170 181 204 178 137 146 179 196 208 205 213 214 209 230 167 153 132 125 199 175 134 113 118 177 214 210 259 283 216 153 137 123 128 152 141 131 123 126 197 247 130 79 132 127 213 267 261 219 229 243 215 200 202 198 200 206 205 205 206 207 209 212
347 321 287 285 190 176 171 190 325 286 212 261 293 268 264 270 250 282 305 241 222 232 213 205 195 186 206 200 171 171 178 170 173 195 228 232 231 233 260 315 168 149 125 139 202 162 108 87 89 344 303 303 306 324 23 60 89 103 70 121 137 138 132 142 175 178 149 162 147 113 257 269 277 277 273 259 227 205 202 203 205 208 208 209 208 208 210 211
335 315 291 332 250 196 183 203 237 236 288 322 343 303 273 250 228 249 268 249 244 195 139 227 204 185 215 168 124 178 202 181 193 213 203 206 225 263 321 338 179 172 164 190 183 169 171 123 100 86 11 346 342 350 350 344 44 134 164 111 120 110 110 116 114 116 171 209 157 145 237 255 271 317 333 281 218 198 206 209 208 210 211 209 208 209 210 209
338 311 303 7 344 187 153 115 159 157 355 341 334 311 294 280 261 261 259 261 268 229 191 262 229 144 128 103 82 51 117 150 232 223 171 214 248 305 4 16 192 206 216 173 154 147 153 153 124 124 140 176 203 244 250 247 222 181 114 123 129 118 129 143 110 113 221 233 148 161 225 261 285 310 326 291 226 212 216 212 212 215 213 209 208 208 208 206
3 341 324 355 40 88 85 64 61 88 88 35 329 305 329 322 305 310 295 256 282 274 236 263 326 77 55 69 87 50 20 351 323 131 149 231 265 296 358 27 86 142 121 123 131 126 110 92 128 142 168 182 183 209 221 156 141 190 157 144 164 137 126 116 107 145 190 168 179 217 210 260 292 286 276 256 229 224 222 211 212 215 212 210 209 207 205 203
31 47 332 341 14 47 60 45 35 30 15 79 245 301 352 342 316 332 349 356 335 324 256 157 62 87 190 126 120 137 263 329 347 21 164 258 268 289 342 35 74 75 92 108 99 96 102 112 154 148 178 197 180 195 214 121 147 187 167 152 176 156 121 116 155 198 153 130 261 253 199 209 264 260 248 240 225 226 228 216 213 212 208 208 206 202 201 198
33 40 31 16 339 358 42 5 1 357 337 334 178 2 11 5 348 346 331 327 344 4 26 26 33 16 246 206 152 149 181 14 7 342 231 251 281 335 352 3 30 23 36 51 29 84 115 128 192 155 135 202 195 307 351 109 139 173 167 167 164 161 164 176 207 198 153 173 249 241 181 204 244 253 247 235 217 218 222 219 218 214 207 203 197 194 194 193
35 46 29 20 330 215 299 320 320 335 5 7 37 38 23 10 357 335 296 319 341 7 25 6 300 333 311 233 140 141 182 174 175 243 225 190 17 33 26 317 346 13 37 61 30 50 104 104 204 154 94 81 266 286 264 151 130 159 200 196 168 169 189 201 220 204 180 218 256 227 193 231 249 246 249 252 240 228 224 220 217 213 205 198 192 191 191 190
43 35 352 353 345 318 331 332 336 35 27 12 33 22 4 11 0 330 296 296 321 348 13 356 298 311 311 119 102 116 186 197 210 226 179 153 172 199 188 204 205 26 34 66 21 14 69 116 195 107 91 349 313 211 176 159 169 191 252 264 196 178 198 213 237 203 186 252 272 246 225 260 261 243 251 263 243 214 212 214 211 207 202 194 189 190 190 190
50 27 6 360 356 353 351 344 4 72 41 13 23 354 345 2 352 329 296 251 162 35 8 326 301 297 313 69 82 77 337 295 269 264 237 214 234 227 218 204 178 130 44 63 32 27 75 105 46 74 100 280 293 147 118 19 84 167 305 280 238 208 193 205 208 184 179 214 248 241 241 259 264 251 254 256 215 193 201 206 202 201 198 193 191 190 190 190
48 29 7 359 340 0 6 347 360 54 73 3 353 337 321 309 326 336 320 266 118 49 4 339 322 296 349 59 60 339 318 304 287 282 285 281 265 252 254 227 170 147 126 127 75 35 114 124 124 111 134 257 283 25 36 19 35 301 279 233 202 192 200 223 250 219 203 173 174 218 233 239 262 272 241 237 211 205 213 209 202 199 195 194 194 192 190 191